Rechercher aéroport 
image banner adimage banner adimage banner ad
image banner ad

S51 - Andy Mc Beth

Situé à Klamath Glen, United States

ICAO - S51, IATA -

Données fournies par Airmate  

Information générale

Coordonnées: N41°30'43" W123°59'44"
Élévation : 42 feet MSL.
Variation magnétique : 18° East
Voir autres Aéroports à California

Données opérationnelles

Special qualification required
Heure actuelle UTC:
Heure actuelle locale:
Météo à : KCEC - Jack Mc Namara Field ( 36 km )
METAR: KCEC 292356Z AUTO 31008KT 7SM CLR 16/12 A2996 RMK AO2 SLP145 T01560117 10178 20150 56002
TAF: KCEC 292338Z 3000/3024 31007KT P6SM SKC FM300400 17003KT 3SM BR BKN003 FM300600 17005KT 1/4SM FG OVC001 FM302200 18005KT 6SM BR OVC003
Voir NOTAMs / SUP AIP / TFR affectant cet aéroport [VIEW]
Fréquences de communication: [VIEW]

Pistes:

Identifiant RWYQFULongueur (ft)Largeur (ft)SurfaceLDA (ft)
11240050ASPH
29240050ASPH

Coordonnées de l'aéroport

Adresse: Klamath Glen United States

Vue satellite de S51